AVA247 SKCL-SEGU

Flight info

Callsign AVA247
Flight time N/A
Altitude 24000
Route CLO1C ISOPA G675 IPI/N0382F230 G675 QIT/N0386F240 W9 TOGIX DCT DALUD STAR5
Aircraft A319/M-SDE3FGHIRWY/LB1

Departure

Time 2026-05-07 00:18
Airport Alfonso Bonilla Aragon International Airport (SKCL)

Arrival

Time N/A
Airport José Joaquín de Olmedo International Airport (SEGU)
Time Latitude Longitude Altitude Speed Heading
2026-05-06 23:30 3.53831 -76.38705 3162 ft 0 kts 266°
2026-05-07 00:09 3.53831 -76.38697 3162 ft 3 kts 265°
2026-05-07 00:09 3.53833 -76.38676 3162 ft 3 kts 262°
2026-05-07 00:10 3.53837 -76.38655 3162 ft 3 kts 254°
2026-05-07 00:10 3.53844 -76.38636 3162 ft 3 kts 236°
2026-05-07 00:10 3.53852 -76.38626 3162 ft 0 kts 221°
2026-05-07 00:12 3.53851 -76.38626 3162 ft 1 kts 220°
2026-05-07 00:12 3.53845 -76.38624 3162 ft 1 kts 162°
2026-05-07 00:13 3.53828 -76.38612 3162 ft 5 kts 145°
2026-05-07 00:13 3.53792 -76.38586 3164 ft 7 kts 144°
2026-05-07 00:13 3.53750 -76.38556 3164 ft 8 kts 144°
2026-05-07 00:13 3.53705 -76.38523 3162 ft 8 kts 144°
2026-05-07 00:14 3.53656 -76.38488 3162 ft 9 kts 144°
2026-05-07 00:14 3.53604 -76.38450 3162 ft 10 kts 144°
2026-05-07 00:14 3.53554 -76.38432 3162 ft 6 kts 208°
2026-05-07 00:14 3.53520 -76.38464 3164 ft 7 kts 223°
2026-05-07 00:15 3.53470 -76.38480 3164 ft 9 kts 189°
2026-05-07 00:15 3.53406 -76.38490 3164 ft 10 kts 189°
2026-05-07 00:15 3.53335 -76.38503 3162 ft 12 kts 189°
2026-05-07 00:15 3.53251 -76.38517 3162 ft 13 kts 190°
2026-05-07 00:16 3.53163 -76.38533 3162 ft 13 kts 190°
2026-05-07 00:16 3.53072 -76.38549 3162 ft 13 kts 190°
2026-05-07 00:16 3.52997 -76.38533 3162 ft 9 kts 114°
2026-05-07 00:16 3.52988 -76.38483 3162 ft 8 kts 99°
2026-05-07 00:17 3.52997 -76.38427 3161 ft 9 kts 63°
2026-05-07 00:17 3.53030 -76.38388 3160 ft 5 kts 20°
2026-05-07 00:17 3.53043 -76.38387 3160 ft 0 kts
2026-05-07 00:17 3.53047 -76.38386 3160 ft 4 kts
2026-05-07 00:18 3.53307 -76.38342 3161 ft 75 kts
2026-05-07 00:18 3.54046 -76.38214 3166 ft 137 kts
2026-05-07 00:18 3.55137 -76.38023 3292 ft 172 kts
2026-05-07 00:18 3.56333 -76.37802 3803 ft 184 kts
2026-05-07 00:19 3.57683 -76.37562 4145 ft 209 kts
2026-05-07 00:19 3.59192 -76.37297 4466 ft 231 kts
2026-05-07 00:19 3.60809 -76.37012 5151 ft 239 kts
2026-05-07 00:19 3.62461 -76.36718 6008 ft 243 kts
2026-05-07 00:20 3.64145 -76.36419 6822 ft 248 kts
2026-05-07 00:20 3.65843 -76.35989 7569 ft 258 kts 23°
2026-05-07 00:20 3.67289 -76.34902 8303 ft 266 kts 51°
2026-05-07 00:20 3.68145 -76.33279 9104 ft 267 kts 77°
2026-05-07 00:21 3.68236 -76.31429 9913 ft 266 kts 103°
2026-05-07 00:21 3.67538 -76.29734 10723 ft 265 kts 127°
2026-05-07 00:21 3.66190 -76.28489 11512 ft 267 kts 151°
2026-05-07 00:21 3.64451 -76.27937 12265 ft 269 kts 176°
2026-05-07 00:22 3.62591 -76.28194 13011 ft 275 kts 201°
2026-05-07 00:22 3.60877 -76.29082 13737 ft 280 kts 208°
2026-05-07 00:22 3.59161 -76.30042 14412 ft 285 kts 208°
2026-05-07 00:22 3.57412 -76.31023 15094 ft 290 kts 208°
2026-05-07 00:23 3.55639 -76.32019 15775 ft 294 kts 208°
2026-05-07 00:23 3.53836 -76.33026 16440 ft 299 kts 207°
2026-05-07 00:23 3.52006 -76.34042 17080 ft 303 kts 207°
2026-05-07 00:23 3.50147 -76.35066 17727 ft 307 kts 207°
2026-05-07 00:24 3.48887 -76.35730 18145 ft 309 kts 204°
2026-05-07 00:24 3.46947 -76.36694 18765 ft 313 kts 204°
2026-05-07 00:24 3.45004 -76.37704 19389 ft 316 kts 206°
2026-05-07 00:24 3.43087 -76.38799 20017 ft 319 kts 209°
2026-05-07 00:25 3.41196 -76.39972 20626 ft 321 kts 211°
2026-05-07 00:25 3.39226 -76.41047 21112 ft 328 kts 204°
2026-05-07 00:25 3.37111 -76.42067 21234 ft 347 kts 203°
2026-05-07 00:25 3.34866 -76.43103 21361 ft 364 kts 202°
2026-05-07 00:26 3.32503 -76.44173 21484 ft 381 kts 202°
2026-05-07 00:26 3.30038 -76.45290 21638 ft 396 kts 202°
2026-05-07 00:26 3.27502 -76.46447 21995 ft 404 kts 203°
2026-05-07 00:26 3.24936 -76.47625 22470 ft 408 kts 203°
2026-05-07 00:27 3.22349 -76.48820 22972 ft 411 kts 203°
2026-05-07 00:27 3.19744 -76.50027 23471 ft 414 kts 203°
2026-05-07 00:27 3.17119 -76.51243 23889 ft 417 kts 203°
2026-05-07 00:27 3.14490 -76.52458 24001 ft 414 kts 203°
2026-05-07 00:28 3.11927 -76.53642 24026 ft 396 kts 203°
2026-05-07 00:28 3.09460 -76.54781 24033 ft 388 kts 203°
2026-05-07 00:28 3.07018 -76.55907 24037 ft 385 kts 203°
2026-05-07 00:28 3.04587 -76.57026 24044 ft 385 kts 203°
2026-05-07 00:29 3.02187 -76.58129 24051 ft 384 kts 203°
2026-05-07 00:29 2.99762 -76.59248 24059 ft 384 kts 203°
2026-05-07 00:30 2.92489 -76.62617 24069 ft 384 kts 203°
2026-05-07 00:30 2.90062 -76.63739 24075 ft 384 kts 203°
2026-05-07 00:30 2.87633 -76.64861 24081 ft 384 kts 203°
2026-05-07 00:30 2.85205 -76.65984 24085 ft 384 kts 203°
2026-05-07 00:31 2.82783 -76.67104 24091 ft 384 kts 203°
2026-05-07 00:31 2.80359 -76.68225 24096 ft 384 kts 202°
2026-05-07 00:31 2.77935 -76.69345 24090 ft 384 kts 203°
2026-05-07 00:31 2.75513 -76.70465 24095 ft 383 kts 203°
2026-05-07 00:32 2.73090 -76.71584 24100 ft 383 kts 203°
2026-05-07 00:32 2.70669 -76.72703 24100 ft 383 kts 203°
2026-05-07 00:32 2.68247 -76.73822 24103 ft 383 kts 203°
2026-05-07 00:32 2.65856 -76.74923 24108 ft 383 kts 203°
2026-05-07 00:33 2.63435 -76.76039 24113 ft 383 kts 203°
2026-05-07 00:33 2.61019 -76.77153 24116 ft 383 kts 203°
2026-05-07 00:33 2.58602 -76.78271 24121 ft 383 kts 203°
2026-05-07 00:33 2.56183 -76.79392 24122 ft 383 kts 203°
2026-05-07 00:34 2.53765 -76.80511 24125 ft 383 kts 203°
2026-05-07 00:34 2.51346 -76.81629 24127 ft 383 kts 203°
2026-05-07 00:34 2.48928 -76.82745 24132 ft 383 kts 203°
2026-05-07 00:34 2.46511 -76.83857 24134 ft 383 kts 203°
2026-05-07 00:35 2.44092 -76.84969 24136 ft 382 kts 203°
2026-05-07 00:35 2.41679 -76.86081 24136 ft 382 kts 203°
2026-05-07 00:35 2.39263 -76.87198 24137 ft 382 kts 203°
2026-05-07 00:35 2.36849 -76.88316 24135 ft 382 kts 203°
2026-05-07 00:36 2.34434 -76.89436 24133 ft 382 kts 203°
2026-05-07 00:36 2.32019 -76.90553 24133 ft 382 kts 203°
2026-05-07 00:36 2.29597 -76.91672 24132 ft 382 kts 203°
2026-05-07 00:36 2.27182 -76.92789 24131 ft 382 kts 203°
2026-05-07 00:37 2.24798 -76.93893 24129 ft 383 kts 203°
2026-05-07 00:37 2.22384 -76.95012 24126 ft 383 kts 203°
2026-05-07 00:37 2.19970 -76.96132 24125 ft 382 kts 203°
2026-05-07 00:37 2.17554 -76.97251 24124 ft 383 kts 203°
2026-05-07 00:38 2.15138 -76.98368 24121 ft 383 kts 203°
2026-05-07 00:38 2.12720 -76.99488 24117 ft 383 kts 203°
2026-05-07 00:38 2.10299 -77.00609 24117 ft 383 kts 203°
2026-05-07 00:38 2.07882 -77.01728 24117 ft 383 kts 203°
2026-05-07 00:39 2.05466 -77.02847 24120 ft 383 kts 203°